Mountain Home, AR

10:19 AM CST on December 16, 2017 (GMT -0600)
Baxter County Regional

Weather History for KBPK - February, 2013

Change the Weather History Date:

Saturday, February 23, 2013

  Actual Average (KFLP) Record (KFLP)
Temperature  
Mean Temperature 31 °F -  
Max Temperature 43 °F 51 °F 78 °F (2017)
Min Temperature 19 °F 32 °F 17 °F (2015)
Degree Days  
Heating Degree Days 34    
Moisture  
Dew Point 20 °F    
Average Humidity 64    
Maximum Humidity 89    
Minimum Humidity 40    
Precipitation  
Precipitation 0.00 in - - ()
Sea Level Pressure  
Sea Level Pressure 30.04 in    
Wind  
Wind Speed 2 mph (NNW)    
Max Wind Speed 6 mph    
Max Gust Speed -    
Visibility 9 miles    
Events      
Averages and records for this station are not official NWS values.
T = Trace of Precipitation, MM = Missing Value Source: NWS Daily Summary

Daily Weather History Graph

Daily Weather History Graph

Search for Another Location

Airport or City:

Trip Planner

Search our weather history database for the weather conditions in past years. The results will help you decide how hot, cold, wet, or windy it might be!

Date:

Astronomy

Feb. 23, 2013 Rise Set
Actual Time 6:47 AM CST 5:59 PM CST
Civil Twilight 6:21 AM CST 6:25 PM CST
Nautical Twilight 5:51 AM CST 6:55 PM CST
Astronomical Twilight 5:22 AM CST 7:24 PM CST
Moon 4:11 PM CST (2/23) 5:08 AM CST (2/23)
Length of Visible Light 12h 03m
Length of Day
11h 11m
Waxing Gibbous, 95% of the Moon is Illuminated
Feb 23
Waxing Gibbous
Feb 25
Full
Mar 4
Last Quarter
Mar 11
New
Mar 19
First Quarter

Hourly Weather History & Observations

Time (CST) Temp. Windchill Dew Point Humidity Pressure Visibility Wind Dir Wind Speed Gust Speed Precip Events Conditions
12:53 AM 25.0 °F - 19.9 °F 81% 30.10 in 8.0 mi Calm Calm - N/A   Clear
1:53 AM 25.0 °F 20.7 °F 21.0 °F 85% 30.10 in 7.0 mi NW 3.5 mph - N/A   Clear
2:53 AM 23.0 °F - 19.9 °F 88% 30.07 in 6.0 mi Calm Calm - N/A   Clear
3:53 AM 23.0 °F 17.0 °F 19.9 °F 88% 30.06 in 7.0 mi NW 4.6 mph - N/A   Clear
4:53 AM 21.9 °F 17.2 °F 19.0 °F 89% 30.06 in 7.0 mi NW 3.5 mph - N/A   Clear
5:53 AM 21.0 °F - 18.0 °F 88% 30.06 in 6.0 mi Calm Calm - N/A   Clear
6:53 AM 19.9 °F - 17.1 °F 89% 30.05 in 6.0 mi Calm Calm - N/A   Clear
7:53 AM 24.1 °F - 19.0 °F 81% 30.06 in 6.0 mi Calm Calm - N/A   Haze
8:53 AM 28.0 °F - 19.9 °F 72% 30.07 in 7.0 mi Calm Calm - N/A   Clear
9:53 AM 30.9 °F - 19.9 °F 64% 30.07 in 8.0 mi Calm Calm - N/A   Clear
10:53 AM 33.1 °F - 19.9 °F 59% 30.07 in 9.0 mi Calm Calm - N/A   Clear
11:53 AM 37.0 °F 33.3 °F 18.0 °F 46% 30.06 in 10.0 mi North 4.6 mph - N/A   Clear
12:53 PM 39.0 °F 35.7 °F 19.0 °F 45% 30.03 in 10.0 mi Variable 4.6 mph - N/A   Clear
1:53 PM 39.9 °F 36.7 °F 19.9 °F 45% 30.01 in 10.0 mi West 4.6 mph - N/A   Clear
2:53 PM 39.9 °F 37.8 °F 19.9 °F 45% 30.00 in 10.0 mi Variable 3.5 mph - N/A   Clear
3:53 PM 42.1 °F 38.4 °F 21.0 °F 43% 29.99 in 10.0 mi NNW 5.8 mph - N/A   Clear
4:53 PM 43.0 °F 41.3 °F 19.9 °F 40% 29.98 in 10.0 mi WNW 3.5 mph - N/A   Clear
5:53 PM 39.9 °F - 19.9 °F 45% 29.98 in 10.0 mi Calm Calm - N/A   Clear
6:53 PM 37.0 °F - 19.9 °F 50% 30.00 in 10.0 mi Calm Calm - N/A   Clear
7:53 PM 35.1 °F - 19.9 °F 54% 30.00 in 10.0 mi Calm Calm - N/A   Clear
8:53 PM 36.0 °F - 19.9 °F 52% 30.01 in 10.0 mi Calm Calm - N/A   Clear
9:53 PM 33.1 °F 30.0 °F 21.0 °F 61% 30.02 in 10.0 mi ESE 3.5 mph - N/A   Clear
10:53 PM 33.1 °F 30.0 °F 21.0 °F 61% 30.01 in 10.0 mi East 3.5 mph - N/A   Clear
11:53 PM 33.1 °F - 21.0 °F 61% 30.01 in 10.0 mi Calm Calm - N/A   Clear